Retour au catalogue

BREEZE-M DEB

LostHEO
NORAD 35539·DEBRIS·🇷🇺 Russia

Lancé Feb 28, 2006 depuis Baikonur Cosmodrome

Loading…

Prochains Passages (prochaines 24 heures)

TLE

PériméSource: Space-Track

Époque: Jun 26, 2010, 19:38 UTC

1 35539U 06006CG  10177.81856513  .00063014  00000-0  23288-1 0  9998
2 35539  51.6822 359.2185 4991758 173.0990 197.9710  5.56242729 41401

Suivez BREEZE-M DEB en temps réel avec AllMySat

Download on the App Store